When you browse on this site, cookies collect data to enhance your experience and personalize the content and advertising you see.
Visit our Privacy Policy to learn more. By continuing to use the site, you agree to this use of cookies and data.
  • en France
  • Liste des pays
  • À 7 jours
  • Température de l'eau
  • Carte satellitaire
  • Carte météo
  • Widgets météo
  • user-avatar
    Se connecter

    Météo par heure à Hoddesdon

    Ce jour, 18 Juin, Mardi

    Heure Température Précipitation Vent Pression Humidité
    00:00 +13°C° 0 mm 2 m/s 760 mmHg 88%
    01:00 +13°C° 0 mm 2 m/s 759 mmHg 88%
    02:00 +12°C° 0 mm 1 m/s 759 mmHg 88%
    03:00 +12°C° 0 mm 1 m/s 759 mmHg 89%
    04:00 +12°C° 0 mm 1 m/s 759 mmHg 86%
    05:00 +13°C° 0 mm 1 m/s 759 mmHg 84%
    06:00 +13°C° 0 mm 0 m/s 759 mmHg 82%
    07:00 +15°C° 0 mm 1 m/s 758 mmHg 77%
    08:00 +18°C° 0 mm 1 m/s 758 mmHg 72%
    09:00 +18°C° 0 mm 2 m/s 758 mmHg 66%
    10:00 +18°C° 0.1 mm 2 m/s 758 mmHg 68%
    11:00 +18°C° 0.1 mm 2 m/s 758 mmHg 70%
    12:00 +19°C° 0.1 mm 2 m/s 757 mmHg 71%
    13:00 +19°C° 0.1 mm 2 m/s 757 mmHg 73%
    14:00 +19°C° 0.1 mm 2 m/s 757 mmHg 75%
    15:00 +19°C° 0.1 mm 2 m/s 756 mmHg 76%
    16:00 +19°C° 0.2 mm 2 m/s 756 mmHg 79%
    17:00 +18°C° 0.2 mm 2 m/s 756 mmHg 82%
    18:00 +18°C° 0.2 mm 2 m/s 756 mmHg 84%
    19:00 +17°C° 0 mm 2 m/s 755 mmHg 86%
    20:00 +16°C° 0 mm 2 m/s 755 mmHg 88%
    21:00 +16°C° 0 mm 2 m/s 755 mmHg 90%
    22:00 +16°C° 0 mm 2 m/s 754 mmHg 91%
    23:00 +15°C° 0 mm 2 m/s 754 mmHg 92%

    Demain, 19 Juin, Mercredi

    Heure Température Précipitation Vent Pression Humidité
    00:00 +15°C° 0 mm 2 m/s 754 mmHg 93%
    01:00 +15°C° 1.8 mm 2 m/s 753 mmHg 94%
    02:00 +15°C° 1.8 mm 2 m/s 752 mmHg 96%
    03:00 +15°C° 1.8 mm 2 m/s 751 mmHg 97%
    04:00 +16°C° 1.5 mm 1 m/s 751 mmHg 97%
    05:00 +16°C° 1.5 mm 1 m/s 751 mmHg 96%
    06:00 +16°C° 1.5 mm 1 m/s 751 mmHg 95%
    07:00 +16°C° 0.6 mm 2 m/s 751 mmHg 95%
    08:00 +16°C° 0.6 mm 2 m/s 751 mmHg 95%
    09:00 +16°C° 0.6 mm 3 m/s 751 mmHg 95%
    10:00 +16°C° 0.9 mm 3 m/s 752 mmHg 94%
    11:00 +16°C° 0.9 mm 3 m/s 752 mmHg 94%
    12:00 +15°C° 0.9 mm 4 m/s 753 mmHg 93%
    13:00 +17°C° 0.1 mm 4 m/s 753 mmHg 87%
    14:00 +18°C° 0.1 mm 3 m/s 753 mmHg 82%
    15:00 +19°C° 0.1 mm 3 m/s 753 mmHg 77%
    16:00 +19°C° 0.2 mm 3 m/s 753 mmHg 79%
    17:00 +18°C° 0.2 mm 2 m/s 753 mmHg 82%
    18:00 +18°C° 0.2 mm 2 m/s 753 mmHg 84%
    19:00 +17°C° 0.1 mm 2 m/s 754 mmHg 86%
    20:00 +16°C° 0.1 mm 2 m/s 754 mmHg 87%
    21:00 +15°C° 0.1 mm 2 m/s 754 mmHg 89%
    22:00 +15°C° 0 mm 2 m/s 754 mmHg 89%
    23:00 +14°C° 0 mm 2 m/s 755 mmHg 89%

    Après-demain, 20 Juin, Jeudi

    Heure Température Précipitation Vent Pression Humidité
    00:00 +13°C° 0 mm 3 m/s 755 mmHg 89%
    01:00 +12°C° 0 mm 3 m/s 755 mmHg 89%
    02:00 +11°C° 0 mm 3 m/s 755 mmHg 88%
    03:00 +11°C° 0 mm 3 m/s 755 mmHg 88%
    04:00 +11°C° 0 mm 3 m/s 755 mmHg 86%
    05:00 +11°C° 0 mm 3 m/s 755 mmHg 85%
    06:00 +11°C° 0 mm 3 m/s 755 mmHg 84%
    07:00 +13°C° 0 mm 3 m/s 755 mmHg 80%
    08:00 +14°C° 0 mm 4 m/s 756 mmHg 76%
    09:00 +17°C° 0 mm 4 m/s 756 mmHg 72%
    10:00 +18°C° 0.1 mm 4 m/s 756 mmHg 69%
    11:00 +18°C° 0.1 mm 4 m/s 756 mmHg 66%
    12:00 +19°C° 0.1 mm 5 m/s 756 mmHg 62%
    13:00 +19°C° 0.3 mm 5 m/s 756 mmHg 64%
    14:00 +19°C° 0.3 mm 5 m/s 756 mmHg 65%
    15:00 +19°C° 0.3 mm 6 m/s 756 mmHg 66%
    16:00 +17°C° 0.1 mm 5 m/s 757 mmHg 69%
    17:00 +17°C° 0.1 mm 5 m/s 757 mmHg 71%
    18:00 +17°C° 0.1 mm 4 m/s 757 mmHg 73%
    19:00 +15°C° 0 mm 4 m/s 757 mmHg 76%
    20:00 +14°C° 0 mm 3 m/s 758 mmHg 80%
    21:00 +12°C° 0 mm 3 m/s 758 mmHg 83%
    22:00 +12°C° 0 mm 3 m/s 758 mmHg 84%
    23:00 +11°C° 0 mm 3 m/s 759 mmHg 85%

    21 Juin, Vendredi

    Heure Température Précipitation Vent Pression Humidité
    00:00 +11°C° 0 mm 3 m/s 759 mmHg 86%
    01:00 +10°C° 0 mm 3 m/s 759 mmHg 87%
    02:00 +9°C° 0 mm 3 m/s 759 mmHg 87%
    03:00 +9°C° 0 mm 3 m/s 759 mmHg 88%
    04:00 +10°C° 0 mm 3 m/s 759 mmHg 86%
    05:00 +10°C° 0 mm 3 m/s 760 mmHg 85%
    06:00 +11°C° 0 mm 3 m/s 760 mmHg 83%
    07:00 +12°C° 0 mm 4 m/s 760 mmHg 78%
    08:00 +14°C° 0 mm 4 m/s 760 mmHg 72%
    09:00 +15°C° 0 mm 4 m/s 760 mmHg 66%
    10:00 +17°C° 0.1 mm 4 m/s 760 mmHg 65%
    11:00 +17°C° 0.1 mm 5 m/s 760 mmHg 63%
    12:00 +19°C° 0.1 mm 5 m/s 760 mmHg 62%
    13:00 +19°C° 0.1 mm 5 m/s 760 mmHg 62%
    14:00 +19°C° 0.1 mm 4 m/s 760 mmHg 63%
    15:00 +19°C° 0.1 mm 4 m/s 761 mmHg 63%
    16:00 +19°C° 0.2 mm 4 m/s 761 mmHg 67%
    17:00 +18°C° 0.2 mm 3 m/s 761 mmHg 71%
    18:00 +18°C° 0.2 mm 3 m/s 761 mmHg 75%
    19:00 +16°C° 0.1 mm 2 m/s 761 mmHg 77%
    20:00 +15°C° 0.1 mm 2 m/s 762 mmHg 80%
    21:00 +13°C° 0.1 mm 2 m/s 762 mmHg 82%
    22:00 +13°C° 0 mm 2 m/s 762 mmHg 84%
    23:00 +12°C° 0 mm 1 m/s 762 mmHg 85%

    22 Juin, Samedi

    Heure Température Précipitation Vent Pression Humidité
    00:00 +11°C° 0 mm 1 m/s 762 mmHg 86%
    01:00 +11°C° 0 mm 1 m/s 762 mmHg 86%
    02:00 +10°C° 0 mm 1 m/s 762 mmHg 85%
    03:00 +10°C° 0 mm 1 m/s 762 mmHg 85%
    04:00 +11°C° 0 mm 1 m/s 762 mmHg 84%
    05:00 +12°C° 0 mm 1 m/s 763 mmHg 82%
    06:00 +12°C° 0 mm 1 m/s 763 mmHg 81%
    07:00 +14°C° 0 mm 1 m/s 763 mmHg 77%
    08:00 +16°C° 0 mm 1 m/s 763 mmHg 72%
    09:00 +19°C° 0 mm 1 m/s 763 mmHg 67%
    10:00 +20°C° 0 mm 1 m/s 763 mmHg 63%
    11:00 +21°C° 0 mm 1 m/s 763 mmHg 59%
    12:00 +22°C° 0 mm 1 m/s 763 mmHg 54%
    13:00 +22°C° 0 mm 1 m/s 762 mmHg 56%
    14:00 +21°C° 0 mm 2 m/s 762 mmHg 57%
    15:00 +20°C° 0 mm 3 m/s 762 mmHg 59%
    16:00 +20°C° 0.1 mm 3 m/s 762 mmHg 65%
    17:00 +19°C° 0.1 mm 3 m/s 762 mmHg 70%
    18:00 +18°C° 0.1 mm 3 m/s 762 mmHg 76%
    19:00 +17°C° 0.1 mm 3 m/s 762 mmHg 80%
    20:00 +16°C° 0.1 mm 3 m/s 762 mmHg 83%
    21:00 +14°C° 0.1 mm 3 m/s 763 mmHg 87%
    22:00 +13°C° 0 mm 3 m/s 762 mmHg 88%
    23:00 +13°C° 0 mm 3 m/s 762 mmHg 90%

    23 Juin, Dimanche

    Heure Température Précipitation Vent Pression Humidité
    00:00 +12°C° 0 mm 3 m/s 762 mmHg 92%
    01:00 +12°C° 0 mm 3 m/s 762 mmHg 92%
    02:00 +12°C° 0 mm 3 m/s 762 mmHg 93%
    03:00 +11°C° 0 mm 3 m/s 762 mmHg 93%
    04:00 +12°C° 0 mm 3 m/s 762 mmHg 91%
    05:00 +13°C° 0 mm 3 m/s 762 mmHg 90%
    06:00 +13°C° 0 mm 3 m/s 762 mmHg 88%
    07:00 +16°C° 0 mm 3 m/s 762 mmHg 84%
    08:00 +17°C° 0 mm 4 m/s 762 mmHg 80%
    09:00 +19°C° 0 mm 4 m/s 762 mmHg 76%
    10:00 +19°C° 0.1 mm 4 m/s 762 mmHg 73%
    11:00 +20°C° 0.1 mm 4 m/s 762 mmHg 70%
    12:00 +20°C° 0.1 mm 5 m/s 761 mmHg 68%
    13:00 +20°C° 0 mm 5 m/s 761 mmHg 68%
    14:00 +20°C° 0 mm 6 m/s 761 mmHg 68%
    15:00 +20°C° 0 mm 6 m/s 760 mmHg 68%
    16:00 +19°C° 0 mm 6 m/s 760 mmHg 71%
    17:00 +17°C° 0 mm 5 m/s 760 mmHg 74%
    18:00 +17°C° 0 mm 4 m/s 760 mmHg 76%
    19:00 +15°C° 0.4 mm 4 m/s 760 mmHg 81%
    20:00 +15°C° 0.4 mm 4 m/s 760 mmHg 87%
    21:00 +14°C° 0.4 mm 3 m/s 760 mmHg 92%
    22:00 +14°C° 0.9 mm 4 m/s 760 mmHg 93%
    23:00 +14°C° 0.9 mm 4 m/s 759 mmHg 95%
    Voir plus